Location: Schommer Observatory
(40.5200°N, 74.4500°W)
Time: 07:37:02
(UTC-04:00)

Tiangong 2 - Pass Details

Date: 26 May 2018
Orbit: 382 x 385 km, 42.8° (Epoch: 26 May)

Event Time Altitude Azimuth Distance (km) Brightness Sun altitude
Rises 22:56:11 0° 284° (WNW) 2,252 5.6 -22.3°
Reaches altitude 10° 22:58:15 10° 287° (WNW) 1,398 4.5 -22.5°
Enters shadow 23:00:15 35° 297° (WNW) 634 2.5 -22.7°
